CZ-2C R/B

Satellite information

Favourite Embed

Satellite Type and Status

ROCKET BODYIN ORBIT

Key statistics

Satellite CZ-2C R/B at a glance.

Uptime

4375

Days in orbit

Revolutions

≈ 14.6

Per day

Orbit

SSO

Sun Synchronous Orbit

Inclination

98.4

Latest

Satellite identification and parameters

Extended collection of information and parameters for CZ-2C R/B.

Object identification

Identified? True

Debris? False

Object name: CZ-2C R/B

International designator: 2013-035B

Object number (NORAD): 39203

Object ID (CCSDS): 39203

Country: PEOPLES REPUBLIC OF CHINA (PRC)

Current information (Y/N): Y

RCS size: LARGE

Orbital parameters

Period: 98.861 minutes

Inclination: 98.3597 deg

SMA: 7082.361 km

Apoapsis: 740.226 km

Periapsis: 668.227 km

RAAN: 47.7392 deg

Eccentricy: 0.005083

Argument of periapsis: 128.0338 deg

Mean anomaly: 232.5463 deg

Mean motion: 14.565844 rev/day

Mean motion (dot): 0.00000227 rev/day2

B* drag term: 0.000060903 1/REarth

Two-line elements (TLE)

Creation date: July 5, 2025, 10:56 p.m.

Reference frame: TEME

Reference center: EARTH

Epoch: July 5, 2025, 3:27 p.m. UTC

TLE line 0: 0 CZ-2C R/B

TLE line 1: 1 39203U 13035B 25186.64439566 .00000227 00000-0 60903-4 0 9997

TLE line 2: 2 39203 98.3597 47.7392 0050830 128.0338 232.5463 14.56584400635874

Live tracking on map

Real-time ground track for satellite CZ-2C R/B.

In-orbit conjunctions

A list of the most updated potential collisions computed for object CZ-2C R/B.

Target Orbit TCA Probability of collision Miss distance Type
IRIDIUM 33 DEB LEO 2025-06-26 20:03:11 0.0005685328 263.0 (m) DEBRIS
CZ-6A DEB SSO 2025-04-16 16:32:48 0.0003177853 147.0 (m) DEBRIS
DMSP 5D-2 F13 DEB SSO 2025-03-02 03:06:33 0.0001178247 296.0 (m) DEBRIS
DELTA 1 DEB SSO 2025-01-27 03:43:30 0.000130066 887.0 (m) DEBRIS
CZ-6A DEB LEO 2024-10-18 04:18:32 0.001569144 172.0 (m) DEBRIS

Associated space launch

CZ-2C R/B was lifted into orbit during the mission ‘Long March 2C | Shijian 11-05’, on board a Long March 2 space rocket.

The launch took place on July 15, 2013, 9:27 a.m. from Launch Area 4 (SLS-2 / 603).

For more information about the launch, click the button.

Launch to space Long March 2C | Shijian 11-05
Long March 2C | Shijian 11-05

Agency: N/A

Status: Launch Successful

Launch date: July 15, 2013, 9:27 a.m. UTC

Rocket: Long March 2

Launch pad: Launch Area 4 (SLS-2 / 603)

Location: Jiuquan Satellite Launch Center, People's Republic of China

...

Latest news about this satellite

There are no fresh news available about this satellite. Check back as we update our databases every day.


Newsletter sign-up

Weekly statistics, charts and insights to help you stay on top of the space industry.